User: anonymous   Login
Location: ???????
(55.9142°N, 37.8256°E)
Time: 16:24:31
(UTC+00:00)
Language:

ATLAS 2AS CENTAUR R/B - Orbit

View from above orbital plane
View from above orbital plane
View from above satellite
View from above satellite

Ground track
Ground track

The orbit data is extracted from the following two-line orbital elements,

1 28096U 03054B   24176.85768851 -.00000038  00000-0  85703-4 0  9994
2 28096  63.6798  58.6970 0117298 168.8689 191.4975 13.40975953  5552
Epoch (UTC): 24 June 2024 20:35:04
Eccentricity: 0.0117298
inclination: 63.6798°
perigee height: 1018 km
apogee height: 1193 km
right ascension of ascending node: 58.6970°
argument of perigee: 168.8689°
revolutions per day: 13.40975953
mean anomaly at epoch: 191.4975°
orbit number at epoch: 555

The dashed part of the orbit path shows where the satellite is in the earth's shadow,  

DLR